Вернуться в каталог

FENGYUN 1C DEB

АктивенSSO
NORAD 30550·DEBRIS·🇨🇳 China

Запущен May 10, 1999 с Taiyuan Satellite Launch Center

Loading…

Ближайшие Пролёты (ближайшие 24 часа)

TLE

СвежийSource: Space-Track

Эпоха: Sep 13, 2026, 04:15 UTC

1 30550U 99025AKQ 26256.17736227  .00001989  00000-0  11965-2 0  9995
2 30550  99.0438 155.1655 0125867 256.2461 260.7698 14.04115267992448

Отслеживайте FENGYUN 1C DEB в реальном времени с AllMySat

Download on the App Store